Theta_e
289 288 287 285 284 285 285 286 287 288 289 290 291 292 292 293 294 296 296 298 299 300
288 287 285 285 285 286 286 287 288 289 289 290 290 291 292 292 294 295 297 297 299 300
286 286 285 285 285 285 286 287 288 289 289 289 290 291 292 293 294 296 296 299 299 300
286 286 286 285 285 286 287 288 288 288 289 290 290 291 292 293 293 294 295 298 299 300
285 285 285 285 286 287 287 289 288 288 288 289 289 290 290 291 293 294 294 299 299 300
284 283 283 284 286 286 287 287 287 288 287 287 288 288 289 290 291 292 293 295 299 301
282 283 283 284 285 286 286 286 287 287 287 288 287 288 289 289 289 291 291 292 293 296
282 283 283 283 284 285 285 285 286 286 286 287 288 288 288 288 288 288 288 288 289 290
281 281 282 282 283 283 284 284 285 286 286 286 287 288 288 287 285 286 285 285 285 287
280 280 281 282 282 282 282 284 284 285 285 285 286 287 287 287 285 285 285 285 285 285
279 278 280 282 281 282 283 283 283 283 285 285 285 287 287 285 285 284 284 284 284 284
281 280 281 281 281 282 282 282 283 282 282 284 284 287 287 285 284 283 283 284 284 284
281 281 281 282 282 283 283 282 283 282 281 281 283 285 285 285 283 281 282 283 284 285
280 281 281 282 282 282 282 282 281 281 281 280 280 283 285 284 282 281 280 279 280 283
Wind_Speed
13 8 9 10 10 9 9 9 12 12 12 12 13 13 13 10 11 13 14 18 15 12
12 12 11 14 11 9 11 10 12 12 12 13 13 14 14 11 12 14 13 15 16 15
12 12 12 12 12 13 12 14 13 13 13 13 13 13 14 12 14 13 13 13 15 17
12 12 12 11 12 11 12 12 12 13 13 13 13 12 13 13 15 16 16 18 16 19
12 11 11 11 11 10 11 10 11 12 12 11 12 12 12 13 12 13 14 15 17 18
11 11 12 12 11 11 11 11 10 10 10 11 10 9 10 11 12 12 11 11 11 15
10 11 11 11 11 11 10 10 9 8 9 10 10 9 9 9 10 8 7 7 6 5
10 10 11 11 11 10 9 9 10 10 10 9 9 6 9 8 8 5 5 4 4 3
9 9 8 9 9 8 9 9 8 8 8 8 6 14 12 8 4 4 4 4 4 5
7 7 8 7 8 8 9 8 9 9 8 7 7 14 12 10 4 4 5 4 4 3
5 6 6 7 8 8 8 8 8 10 9 7 7 14 15 14 8 7 8 8 6 6
6 7 6 7 8 7 7 7 8 9 11 10 10 18 16 11 8 10 11 9 11 9
4 5 6 5 6 6 6 6 6 8 10 14 13 22 20 13 6 9 7 9 11 20
2 4 5 4 4 5 5 5 6 7 8 11 13 14 21 18 7 6 7 8 10 10
Wind_Direction
296 291 292 286 283 280 278 280 284 280 278 277 275 272 268 263 259 255 253 253 243 251
297 296 294 290 285 281 277 274 274 276 277 274 273 271 271 265 266 264 264 265 244 247
303 299 293 290 282 285 284 283 280 278 274 271 269 268 265 266 264 261 267 257 243 249
301 302 299 294 291 285 282 281 281 282 281 276 274 272 267 263 273 269 267 262 240 243
308 309 307 296 292 292 286 292 288 293 291 289 281 280 279 275 279 275 283 279 237 243
315 318 307 305 304 305 302 304 307 304 296 294 289 285 275 272 275 272 280 283 285 253
318 313 310 312 312 314 314 313 309 302 299 301 302 288 286 286 282 282 284 301 318 325
321 316 319 320 322 325 323 325 322 320 321 320 313 309 312 304 297 311 308 322 312 316
324 324 325 327 332 337 341 341 337 337 327 327 322 333 336 334 320 338 348 341 338 348
321 316 333 337 345 350 353 351 349 348 347 350 342 8 17 17 5 7 12 360 1 19
314 306 329 349 354 357 357 357 359 352 356 6 9 25 30 28 25 33 31 27 32 46
325 331 356 1 357 359 5 11 9 8 1 14 24 32 33 30 32 34 27 32 37 39
322 328 347 6 355 354 3 12 12 21 15 18 25 33 32 30 30 36 27 32 35 47
297 315 326 339 357 355 357 357 7 17 21 23 17 24 36 35 26 31 39 37 33 40